Tracking 30986 objects as of 10-Jul-2025
HD Live streaming from Space Station
objects crossing your sky now

FENGYUN 1C DEB

Track FENGYUN 1C DEB now!
10-day predictions


NORAD ID: 31325
Int'l Code: 1999-025BQD
Perigee: 797.8 km
Apogee: 897.9 km
Inclination: 99.0 °
Period: 101.7 minutes
Semi major axis: 7218 km
RCS: 0.0037 m2 (small)
Launch date: May 10, 1999
Source: People's Republic of China (PRC)
Launch site: Taiyaun Space Center, China (TSC)

Note: This is SATELLITE DEBRIS
Your satellite tracking list
Your tracking list is empty




NASA's NSSDC Master Catalog

Two Line Element Set (TLE):
1 31325U 99025BQD 25188.50018308  .00001962  00000-0  10047-2 0  9990
2 31325  98.9934 281.1547 0069379 310.3490  49.1637 14.15472868575384
Source of the keplerian elements: AFSPC